ITAMSAT 1 - Orbit

View from above orbital plane
View from above orbital plane
View from above satellite
View from above satellite

Ground track
Ground track

The orbit data is extracted from the following two-line orbital elements,

1 22826U 93061D   13137.83283975  .00000153  00000-0  76628-4 0  1421
2 22826 098.6105 082.4745 0009025 018.8545 034.1773 14.29844443 24428
Epoch (UTC): 17 May 2013 19:59:17
Eccentricity: 0.0009025
inclination: 98.6105°
perigee height: 786 km
apogee height: 799 km
right ascension of ascending node: 82.4745°
argument of perigee: 18.8545°
revolutions per day: 14.29844443
mean anomaly at epoch: 34.1773°
orbit number at epoch: 2442

The dashed part of the orbit path shows where the satellite is in the earth's shadow,  

Developed and maintained by Chris Peat, Heavens-Above GmbH. Please read the updated FAQ before sending e-mail. Imprint. DLR